Regional Weather Roundup
Issued by NWS

Home | Current Version | Previous Version | Text Only | Print | Product List | Glossary Off
Versions: 1 2 3 4 5 6 7 8 9 10 11 12 13 14 15 16 17 18 19 20 21 22 23 24 25 26 27 28 29 30 31 32 33 34 35 36 37 38 39 40 41 42 43 44 45 46 47 48 49 50

000
ASUS43 KLSX 161207
RWRMO

WEATHER SUMMARY FOR MISSOURI
NATIONAL WEATHER SERVICE SPRINGFIELD MO
700 AM CDT TUE SEP 16 2014

NOTE: "FAIR" INDICATES FEW OR NO CLOUDS BELOW 12,000 FEET WITH NO
       SIGNIFICANT WEATHER AND/OR OBSTRUCTIONS TO VISIBILITY.
       CURRENT SKY AND/OR WEATHER CONDITIONS ARE NOT AVAILABLE FOR
       CHILLICOTHE AND FARMINGTON.

MOZ001>031-035>038-043-044-053-054-161300-
...NORTHERN AND WESTERN MISSOURI...

CITY           SKY/WX    TMP DP  RH WIND       PRES   REMARKS
KANSAS CTY INT PTCLDY    46  45  96 NE5       30.25R
6HR MIN TEMP:  46; 6HR MAX TEMP:  50;

KANSAS C DTWN  CLEAR     50  46  86 NE5       30.24S
6HR MIN TEMP:  50; 6HR MAX TEMP:  54;

LEE`S SUMMIT   CLEAR     47  46  97 N5        30.24S FOG
6HR MIN TEMP:  47; 6HR MAX TEMP:  54;

ST JOSEPH      MOCLDY    41  40  96 CALM      30.26R FOG
6HR MIN TEMP:  41; 6HR MAX TEMP:  50;

CHILLICOTHE      N/A     45  43  93 CALM      30.27R
6HR MIN TEMP:  45; 6HR MAX TEMP:  50;

KIRKSVILLE     FOG       42  40  92 CALM      30.26R VSB 1/4
6HR MIN TEMP:  40; 6HR MAX TEMP:  52;


$$
MOZ066>068-077>081-088>096-101>105-161300-
...SOUTHWEST MISSOURI...

CITY           SKY/WX    TMP DP  RH WIND       PRES   REMARKS
SPRINGFIELD    CLOUDY    64  58  80 NE7       30.18S
6HR MIN TEMP:  64; 6HR MAX TEMP:  66;

JOPLIN         CLOUDY    59  57  93 N5        30.20R
6HR MIN TEMP:  59; 6HR MAX TEMP:  65;


$$
MOZ032>034-039>042-045>050-055>058-069>072-161300-
...CENTRAL MISSOURI...

CITY           SKY/WX    TMP DP  RH WIND       PRES   REMARKS
COLUMBIA       CLOUDY    54  51  90 NE7       30.23S
6HR MIN TEMP:  54; 6HR MAX TEMP:  59;

JEFFERSON CITY CLOUDY    57  51  80 NE3       30.23R
6HR MIN TEMP:  57; 6HR MAX TEMP:  61;

ROLLA          CLOUDY    55  54  96 N8        30.20R FOG
6HR MIN TEMP:  55; 6HR MAX TEMP:  61;

SEDALIA        CLOUDY    57  51  80 NE6       30.24R
6HR MIN TEMP:  57; 6HR MAX TEMP:  58;

WHITEMAN AFB   CLOUDY    55  51  88 NE5       30.23R
OSAGE BEACH    CLOUDY    57  54  88 NE6       30.22R

$$
MOZ051-052-059>065-161300-
...EAST CENTRAL MISSOURI...

CITY           SKY/WX    TMP DP  RH WIND       PRES   REMARKS
ST LOUIS INTL  DRIZZLE   58  55  90 E6        30.22S FOG
6HR MIN TEMP:  58; 6HR MAX TEMP:  61; 6HR PCP: TRACE;

SPIRIT OF STL  CLOUDY    57  56  96 N3        30.21S FOG
6HR MIN TEMP:  57; 6HR MAX TEMP:  61;

ST CHARLES     CLOUDY    56  55  97 N7        30.22R FOG
6HR MIN TEMP:  56; 6HR MAX TEMP:  59;


$$
MOZ072>076-082>087-097>100-106>115-161300-
...SOUTH CENTRAL AND SOUTHEAST MISSOURI...

CITY           SKY/WX    TMP DP  RH WIND       PRES   REMARKS
CAPE GIRARDEAU CLOUDY    61  55  81 N13       30.18R
6HR MIN TEMP:  61; 6HR MAX TEMP:  66;

FARMINGTON     CLOUDY    57  55  94 NE8       30.22R
6HR MIN TEMP:  57; 6HR MAX TEMP:  63;

POPLAR BLUFF   CLOUDY    64  55  72 N8        30.16R
6HR MIN TEMP:  64; 6HR MAX TEMP:  68;

WEST PLAINS    CLOUDY    62  56  80 NE9       30.19S
6HR MIN TEMP:  62; 6HR MAX TEMP:  69;


$$


USA.gov is the U.S. government's official web portal to all federal, state and local government web resources and services.